Other Public Products
Issued by NWS Grand Forks, ND

Home | Current Version | Previous Version | Graphics & Text | Print | Product List | Glossary On
Versions: 1 2 3 4 5 6 7 8 9 10 11 12 13 14 15 16 17 18 19 20 21 22 23 24 25 26 27 28 29 30 31 32 33 34 35 36 37 38 39 40 41 42 43 44 45 46 47 48 49 50
000
FPUS83 KFGF 050310
OPUFGF
PRAIRIE TO PINES WEATHER ROUNDUP
NATIONAL WEATHER SERVICE EASTERN NORTH DAKOTA/GRAND FORKS ND
1000 PM CDT FRI SEP 04 2015

 **SATELLITE DATA USED TO AUGMENT SKY COVER AT AUTOMATED STATIONS**
 *****  WEATHER ACROSS EASTERN NORTH DAKOTA  *****

CITY           SKY/WX    TMP DP  RH WIND       PRES   REMARKS
GRAND FORKS    PTCLDY    67  66  97 N3        29.83R
GRAND FORKS AF MOCLDY    65  65  98 N5        29.84S
GRAND CITY NWS   N/A     70 N/A N/A SW2         N/A
BUXTON         NOT AVBL
DEVILS LAKE    CLEAR     68  63  83 NE6       29.85S
FARGO          MOCLDY    76  72  87 SE7       29.81S
WAHPETON ARPT  PTCLDY    73  66  78 SE6       29.83R
$$

 *****  WEATHER ACROSS CENTRAL AND WESTERN NORTH DAKOTA  *****

CITY           SKY/WX    TMP DP  RH WIND       PRES   REMARKS
JAMESTOWN      CLEAR     70  68  93 SE3       29.83R
BISMARCK       CLEAR     75  69  81 NE7       29.81R
MINOT          CLOUDY    62  58  86 N12       29.89R
MINOT AFB      CLOUDY    61  61 100 N9        29.89R
GARRISON         N/A     66  60  81 NE15      29.87R
WILLISTON      CLOUDY    65  56  72 NE15      29.92R
DICKINSON      PTCLDY    64  60  87 NE14      29.85R
HETTINGER      CLEAR     77  55  46 E14       29.82R
$$

 *****  OTHER OBSERVATIONS NORTHEAST NORTH DAKOTA  *****

CITY           SKY/WX    TMP DP  RH WIND       PRES   REMARKS
WALHALLA       FAIR      64  64 100 MISG      29.87R
LANGDON        FOG       66  66 100 N13       29.88R VSB 1/4
CAVALIER       FAIR      63  63 100 S5        29.86R
GRAFTON        FAIR      66  66 100 N5        29.86R
CANDO          NOT AVBL
FORT TOTTEN    NOT AVBL
ROLLA          CLOUDY    57  57 100 N13       29.93R FOG
RUGBY          CLOUDY    64  64 100 NE10      29.88S
 ***** THE ABOVE OBSERVATIONS ARE NON NWS ARE NOT QUALITY
        CONTROLLED AND MAY MIS-REPORT RAIN FOR SNOW...
$$

 *****  OTHER OBSERVATIONS SOUTHEAST NORTH DAKOTA *****

CITY           SKY/WX    TMP DP  RH WIND       PRES   REMARKS
COOPERSTOWN    NOT AVBL
VALLEY CITY    FAIR      72  72 100 SE5       29.83S
OAKES            N/A     70  70 100 E7        29.82S
GWINNER        CLOUDY    73  73 100 E5        29.83S
BUFFALO        NOT AVBL
WYNDMERE         N/A     72  70  94 SE3         N/A
 ***** THE ABOVE OBSERVATIONS ARE NON NWS ARE NOT QUALITY
       CONTROLLED AND MAY MIS-REPORT RAIN FOR SNOW...
$$

  *****  WEATHER ACROSS NORTHERN MINNESOTA  *****

CITY           SKY/WX    TMP DP  RH WIND       PRES   REMARKS
FLAG ISLAND    MOCLDY    70  66  88 S9        29.84S FOG
WARROAD        MOCLDY    68  64  88 CALM      29.87R
ROSEAU         MOCLDY    70  64  83 S5        29.86R
HALLOCK        CLEAR     66  64  94 CALM      29.85R
THF RVR FALLS  MOCLDY    70  70 100 N3        29.86R
HALSTAD        NOT AVBL
FOSSTON        LGT RAIN  73  70  88 SE6       29.87R
BAUDETTE       CLOUDY    73  70  90 SE5       29.87R
WASKISH        CLOUDY    73  72  94 SE5       29.89R
CROOKSTON      PTCLDY    72  70  94 NE3       29.85R
$$
  *****  WEATHER ACROSS CENTRAL AND WEST MINNESOTA  *****

CITY           SKY/WX    TMP DP  RH WIND       PRES   REMARKS
BEMIDJI        TSTM      70  69  94 SE9       29.91R
PARK RAPIDS    CLOUDY    73  70  90 NE6       29.91R
WADENA         CLOUDY    75  70  83 S5        29.89S
DETROIT LAKES  CLOUDY    77  72  83 SE8       29.88F
MOORHEAD       PTCLDY    75  72  88 E5        29.83S
FERGUS FALLS   CLEAR     75  66  73 SE9       29.84R
ELBOW LAKE     FAIR      73  68  84 SE8       29.85S
MORRIS MN      CLEAR     72  70  94 SE7       29.86S
STAPLES        CLOUDY    75  72  88 S5        29.90S
WHEATON        CLEAR     70  66  88 SE9       29.84F
$$
  *****  WEATHER ELSEWHERE ACROSS MINNESOTA  *****

CITY           SKY/WX    TMP DP  RH WIND       PRES   REMARKS
DULUTH         PTCLDY    64  60  87 E7        29.99R
INTRNTL FALLS  LGT RAIN  74  70  87 SE7       29.91R
ELY            CLEAR     68  57  68 SE6       29.99R
CLOQUET        PTCLDY    63  57  82 E5        29.98S
BRAINERD       CLOUDY    74  70  87 S6        29.91R
HIBBING        MOCLDY    70  63  78 SE8       29.96S
ALEXANDRIA     CLOUDY    75  68  78 SE7       29.90S
SAINT CLOUD    MOCLDY    77  74  90 SE6       29.91R
MINNEAPOLIS    MOCLDY    81  73  76 SE10      29.93R
$$

  *****  WEATHER ACROSS SOUTH DAKOTA  *****

CITY           SKY/WX    TMP DP  RH WIND       PRES   REMARKS
SIOUX FALLS    CLEAR     78  71  79 SE13      29.86R
BROOKINGS      MOCLDY    77  70  78 SE16G22   29.89S
WATERTOWN      PTCLDY    76  70  82 S13       29.85S
HURON          CLOUDY    78  72  81 SE12      29.79R
SISSETON         N/A     72  69  90 S6        29.82S
ABERDEEN       CLEAR     74  69  85 SE7       29.80S
MITCHELL       MOCLDY    80  73  79 SE12      29.80R
PIERRE         MOCLDY    77  66  68 E8        29.76R
MOBRIDGE       CLEAR     77  73  87 E12       29.78R
RAPID CITY     MOCLDY    73  59  61 SE9       29.82R
$$

  *****  SOME WEATHER IN NEARBY STATES *****

CITY           SKY/WX    TMP DP  RH WIND       PRES   REMARKS
GLASGOW MT     CLOUDY    58  45  62 NE20G29   29.95R
GREAT FALLS MT CLOUDY    49  48  97 N12       30.00S
CHEYENNE WY    MOCLDY    65  49  56 W5        30.03R
SCOTTSBLUFF NE CLOUDY    75  52  44 E3        29.87R
OMAHA NE       MOCLDY    82  69  64 SE17      29.90R
DES MOINES IA  CLOUDY    83  70  64 SE6       29.97R
DAVENPORT IA   CLEAR     73  70  90 SE3       30.01R
CHICAGO IL     PTCLDY    72  67  84 E5        30.06R
EAU CLAIRE WI  CLEAR     75  69  81 SE8       29.98R
LA CROSSE WI   CLEAR     77  73  87 E9        29.98R
$$

  *****  SOME NATIONAL WEATHER *****

CITY           SKY/WX    TMP DP  RH WIND       PRES   REMARKS
LA GUARDIA NY  CLEAR     74  61  63 E12       30.19R
RALEIGH NC     MOCLDY    74  69  85 NE3       30.07R
ATLANTA GA     PTCLDY    80  68  66 N3        30.04R
NEW ORLEANS LA PTCLDY    79  73  82 S7        29.99R
OKLAHOMA CITY  PTCLDY    79  67  66 SE8       29.96R
ALBUQUERQUE NM LGT RAIN  66  61  84 N6        30.15R
SALT LAKE CITY PTCLDY    81  33  17 S16       29.74R
LOS ANGELES CA PTCLDY    70  59  68 W10       29.84S
BOISE ID       LGT RAIN  54  44  69 NW20      29.84R
SEATTLE WA     MOCLDY    59  49  69 NE5       30.00R
$$

*** WEATHER ACROSS MANITOBA...SASKATCHEWAN AND ONTARIO ***
                ***ONTARIO***

CITY           SKY/WX    TMP DP  RH WIND       PRES   REMARKS
GERALDTON      PTCLDY    59  55  88 S5        30.07S
THUNDER BAY    PTCLDY    61  57  88 VRB2      30.04R
SIOUX LOOKOUT  CLOUDY    73  61  64 S10G18    29.96R
TORONTO        CLEAR     73  55  53 E8        30.15S
BIG TROUT LK   MOCLDY    66  64  94 SE3       29.95S
PICKLE LAKE    NOT AVBL
DRYDEN         MOCLDY    75  61  60 S16G26    29.92S
KENORA         CLOUDY    72  70  94 S6        29.88R
$$
                *** MANITOBA***

CITY           SKY/WX    TMP DP  RH WIND       PRES   REMARKS
BRANDON        LGT RAIN  59  59 100 N6        29.95S
DAUPHIN        CLOUDY    59  52  77 NW6       29.98R
ISLAND LAKE    LGT RAIN  59  59 100 NE6       29.96F
PILOT MOUND      N/A     59  57  94 N13         N/A
THE PAS        CLOUDY    63  50  63 N8        30.04R
THOMPSON       NOT AVBL
WINNIPEG       CLOUDY    68  66  94 NW7       29.87R
LYNN LAKE      PTCLDY    50  43  76 NW6       30.09R
CHURCHILL      FOG       46  46 100 NE9       30.05F VSB 3/4
$$
                ***SASKATCHEWAN***

CITY           SKY/WX    TMP DP  RH WIND       PRES   REMARKS
ESTEVAN        NOT AVBL
KINDERSLEY     LGT RAIN  48  43  81 NE9       30.10F
LLOYDMINSTER   MOCLDY    46  41  81 NE6       30.17R
PRINCE ALBERT  MOCLDY    52  45  76 N5        30.14R
REGINA         CLOUDY    54  46  76 N15G25    30.05S
YORKTON        CLOUDY    54  48  82 NW10      30.03R
N. BATTLEFORD  CLOUDY    52  41  66 NE9       30.17R


USA.gov is the U.S. government's official web portal to all federal, state and local government web resources and services.